NOAA NWS Hourly Roundups by Site

Regional Weather Roundup for San Diego, CA

To Select Another Site Choose from List

Select Site:  

000
ASUS46 KSGX 172211
RWRSGX

SAN DIEGO HOURLY WEATHER ROUNDUP
NATIONAL WEATHER SERVICE SAN DIEGO CA
200 PM PST SUN FEB 17 2019

NOTE: "FAIR" INDICATES FEW OR NO CLOUDS BELOW 12,000 FEET WITH NO
SIGNIFICANT WEATHER AND/OR OBSTRUCTIONS TO VISIBILITY.

CAZ042-043-060-061-PZZ750-775-172300-

GREATER SAN DIEGO AREA

CITY           SKY/WX    TMP DP  RH WIND       PRES   REMARKS
SAN DIEGO AP   MOSUNNY   60  38  43 W15       30.09F
NATIONAL CITY    N/A     60  46  59 NW1       30.08F
CHULA VISTA      N/A     60  46  59 W18       29.99F
IMPERIAL BEACH PTSUNNY   57  42  57 W17       30.09F
BROWN FIELD    PTSUNNY   54  41  61 W14G21    30.07F
MIRAMAR MCAS   MOSUNNY   60  38  43 SW15G23   30.05F
MONTGOMERY FLD MOSUNNY   56  39  53 W15G23    30.05F
GILLESPIE FLD  PTSUNNY   55  39  54 W13G23    30.08F

$$

NORTH SAN DIEGO COUNTY

CITY           SKY/WX    TMP DP  RH WIND       PRES   REMARKS
CAMP PENDLETON LGT RAIN  54  43  66 W8        30.03F
OCEANSIDE AP   LGT RAIN  55  45  68 W16       30.04F
OCEANSIDE HBR    N/A     55  46  71 W2        30.07F
VISTA            N/A     55  43  65 SW1       30.02F
CARLSBAD       LGT RAIN  54  47  77 VRB5      30.04F
DEL MAR          N/A     59  45  60 W5        30.07F
LA JOLLA SCRIP   N/A     56  46  69 S5        30.06F
FALLBROOK      CLOUDY    54  39  58 W20       30.02F
ESCONDIDO        N/A     55  39  54 W18       30.05F
SAN MARCOS       N/A     52  43  70 W8        30.09F
POWAY            N/A     58  43  56 CALM      30.07F

$$

EAST SAN DIEGO COUNTY

CITY           SKY/WX    TMP DP  RH WIND       PRES   REMARKS
RAMONA         CLOUDY    52  39  61 W20G29    30.02F
LA MESA          N/A     56  40  54 SW9       30.02F
JAMUL            N/A     54  40  59 CALM      30.08F
CAMPO            N/A     45  32  60 SW25G36   29.96F

$$

ORANGE COUNTY AND THE LOS ANGELES BASIN

CITY           SKY/WX    TMP DP  RH WIND       PRES   REMARKS
JOHN WAYNE AP  PTSUNNY   54  46  74 W8G17     30.02F
LAKE FOREST FR   N/A     48  44  85 CALM      29.93F
HUNTINGTON BCH   N/A     55  51  86 W15       30.04F
LOS ALAMITOS   LGT RAIN  54  48  80 SW10G22   30.00F
FULLERTON      CLOUDY    56  43  61 SW9       30.00F
LONG BEACH     LGT RAIN  54  44  69 W12G22    30.01F
L.A. AP        PTSUNNY   54  45  71 W15       30.01F
L.A. DOWNTOWN  CLOUDY    56  43  61 W6        29.99F

$$

THE INLAND EMPIRE

CITY           SKY/WX    TMP DP  RH WIND       PRES   REMARKS
CORONA         LGT RAIN  51  46  83 W8G17     30.00F
CHINO          PTSUNNY   50  43  77 SW13      30.00F
ONTARIO        CLOUDY    51  36  56 W15       29.98F
RIVERSIDE AP   CLOUDY    48  42  80 SW12      30.00F
MORENO VALLEY    N/A     48  42  80 W5        28.12S
MARCH ARB      LGT RAIN  46  45  96 W10       29.98F
HORSETHIEF CYN   N/A     47  37  69 E2        30.02F
PERRIS           N/A     50  40  68 W10       29.98F
HEMET EAST       N/A     46  31  54 W10       29.95F
FRENCH VALLEY  MOCLDY    52  32  46 W15G23    29.99F
TEMECULA         N/A     54  41  62 SW13      29.95F

$$

SAN BERNARDINO AND RIVERSIDE COUNTY MOUNTAINS

CITY           SKY/WX    TMP DP  RH WIND       PRES   REMARKS
BIG BEAR AP    LGT SNOW  27  19  74 SW10G25   29.80F WCI  17
ANGELUS OAKS     N/A     26  23  87 CALM      29.95F

$$

SOUTHERN DESERT INCLUDING THE COACHELLA VALLEY

CITY           SKY/WX    TMP DP  RH WIND       PRES   REMARKS
PALM SPRINGS   PTSUNNY   59  32  36 NE6G17    29.93F
PALM DESERT      N/A     61  33  34 SW15      29.84F
THERMAL        PTSUNNY   65  30  27 W24G30    29.92F
BORREGO AP     FAIR      59  32  36 SW18G24   29.96F
BLYTHE         SUNNY     63  24  22 W18G29    29.91F
IMPERIAL AP    LGT RAIN  60  32  34 W24G32    29.96S
YUMA AZ        MOSUNNY   65  30  27 W23G31    29.96F
MEXICALI       MOSUNNY   64  23  20 SW24      29.97F

$$

UPPER DESERT

CITY           SKY/WX    TMP DP  RH WIND       PRES   REMARKS
VICTORVILLE AP CLOUDY   N/A N/A N/A SW17G29   29.90R
HESPERIA         N/A     43  30  61 W15       29.98F
APPLE VALLEY     N/A     42  31  64 N13       29.96F
PALMDALE       CLOUDY    42  36  79 NW17      29.90F
LANCASTER      LGT RAIN  41  37  86 W17       29.91F
EDWARDS AFB    LGT RAIN  45  35  69 W22G33    29.87F
DAGGETT        LGT RAIN  45  36  70 SW22G29   29.89S
29 PALMS N     PTSUNNY   53  23  31 SW21G31   29.93F
NEEDLES        SUNNY     59  21  23 W17       29.89F

$$

REGIONAL REPORTS

CITY           SKY/WX    TMP DP  RH WIND       PRES   REMARKS
SANTA BARBARA  LGT RAIN  55  41  59 NW16G32   30.00F
SANDBERG       LGT SNOW  33  30  88 N24G36    29.89S FOG     WCI  20
LAS VEGAS NV   CLOUDY    51  25  36 SW10G20   29.79F
PHOENIX AZ     PTSUNNY   58  28  32 W14       29.92F
TIJUANA        PTSUNNY   54  43  66 W22       30.10F

$$

OFFSHORE ISLANDS

CITY           SKY/WX    TMP DP  RH WIND       PRES   REMARKS
CATALINA ARPT  LGT RAIN  46  45  96 W25G33    30.01F FOG
SAN CLEMENTE I PTSUNNY   55  51  86 MISG      30.07F
SAN NICOLAS IS LGT RAIN  53  32  44 W28G33    30.05

$$

MARINE AND OFFSHORE BUOY REPORTS

STATION/POSITION SKY/WX   TEMP    WIND        PRES    VSBY  SWELL
                          AIR SEA DIR/SP/G                  HT/PER/DIR
                          (F)     (DEG/KT/KT) (MB)    (MI)  (FT/S/D)
TANNER BANKS               56 60              1019.1F
S CLEMENTE BASIN           57 60  270/ 21/ 25 1018.5F         7/270/14
SAN NICOLAS IS.               58                N/A           7/310/13
SO. S. ROSA ISLA           54 58  300/ 25/ 29 1017.3F         8/300/13
W. S. BARBARA CH                                N/A
M. S. BARBARA CH           55 58  290/ 25/ 31 1016.4F         3/270/14
S. MONICA BASIN            54 57  290/ 21/ 25 1016.3F         3/250/ 8
S PEDRO CHANNEL               58                N/A           2/280/11
OCEANSIDE OFFSHR              59                N/A           2/270/11
TORREY PINES OTR              59                N/A           2/270/14
SAN DIEGO BAY                                 1018.1F
IMPERIAL BEACH                58                N/A           3/270/13
POINT LOMA SOUTH              59                N/A           3/280/14

$$



 

View Past Reports for San Diego, CA.

Products Courtesy of NOAA-NWS
NWS Information Parsing Script by Ken True at Saratoga Weather - Script by SE Lincoln Weather.